Location: Newark
(6.1167°N, 1.2167°E)
Time: 15:03:19
(UTC+00:00)

Hubble Space Telescope - Pass Details

Date: 21 October 2019
Orbit: 536 x 540 km, 28.5° (Epoch: 20 November)

Event Time Altitude Azimuth Distance (km) Brightness Sun altitude
Rises 17:53:31 0° 267° (W) 2,673 6.9 -4.5°
Reaches altitude 10° 17:56:49 10° 239° (WSW) 1,784 4.8 -5.3°
Maximum altitude 17:58:50 13° 210° (SSW) 1,586 3.8 -5.8°
Drops below altitude 10° 18:00:51 10° 181° (S) 1,785 3.6 -6.3°
Sets 18:04:10 0° 153° (SSE) 2,676 4.2 -7.1°
